Overview Statistics Trail Chart Weather Telemetry Raw packets
 

This is the latest recevied weather packets stored in our database for station/object LY3FF-10. If no packets are shown the sender has not sent any weather packets the latest 10 day(s).

<< 1 2 3 4 >>
Time Temp. Humidity Pressure Rain* Wind** Luminosity Snow
1788626970 14.44° C 84% 985.2 hPa - - - -
1788626200 14.44° C 84% 985.1 hPa - - - -
1788625475 14.44° C 84% 985.1 hPa - - - -
1788624740 15° C 84% 985 hPa - - - -
1788623960 15° C 84% 984.8 hPa - - - -
1788623160 15° C 84% 984.7 hPa - - - -
1788622440 15° C 84% 984.8 hPa - - - -
1788621594 15° C 84% 984.4 hPa - - - -
1788620711 15.56° C 83% 984.4 hPa - - - -
1788619854 15.56° C 81% 984.3 hPa - - - -
1788618994 15.56° C 81% 984.5 hPa - - - -
1788618160 15.56° C 81% 984.4 hPa - - - -
1788617420 15.56° C 81% 984.2 hPa - - - -
1788616635 15.56° C 80% 984.1 hPa - - - -
1788615770 17.22° C 72% 983.6 hPa - - - -
1788614930 20.56° C 69% 983.2 hPa - - - -
1788614147 18.33° C 70% 983.2 hPa - - - -
1788613250 17.78° C 73% 983 hPa - - - -
1788612475 16.67° C 75% 982.9 hPa - - - -
1788611620 16.67° C 75% 983 hPa - - - -
1788610720 17.22° C 74% 982.9 hPa - - - -
1788609925 17.22° C 72% 982.7 hPa - - - -
1788609205 19.44° C 73% 982.8 hPa - - - -
1788608380 18.33° C 67% 982.5 hPa - - - -
1788607585 17.78° C 73% 982.6 hPa - - - -

* Rain since midnight (hover to see other rain measurements)
** Current wind speed in m/s (hover to see current wind gust speed)